This is the latest recevied weather packets stored in our database for station/object LU3HGB-WX. If no packets are shown the sender has not sent any weather packets the latest 10 day(s).
| Time | Temp. | Humidity | Pressure | Rain* | Wind** | Luminosity | Snow |
|---|---|---|---|---|---|---|---|
| 1777747060 | 16.11° C | 44% | 1025 hPa | 0 mm | - | 153 W/m² | - |
| 1777746759 | 16.11° C | 45% | 1025 hPa | 0 mm | - | 170 W/m² | - |
| 1777746459 | 16.11° C | 46% | 1025 hPa | 0 mm | - | 182 W/m² | - |
| 1777746159 | 16.11° C | 45% | 1025 hPa | 0 mm | - | 187 W/m² | - |
| 1777745860 | 16.11° C | 44% | 1025 hPa | 0 mm | - | 182 W/m² | - |
| 1777745560 | 16.11° C | 45% | 1025 hPa | 0 mm | - | 181 W/m² | - |
| 1777745261 | 16.11° C | 46% | 1025 hPa | 0 mm | - | 179 W/m² | - |
| 1777744960 | 16.67° C | 46% | 1025 hPa | 0 mm | - | 186 W/m² | - |
| 1777744659 | 16.67° C | 47% | 1025 hPa | 0 mm | - | 206 W/m² | - |
| 1777744359 | 16.67° C | 49% | 1025 hPa | 0 mm | - | 227 W/m² | - |
| 1777744059 | 16.67° C | 49% | 1025 hPa | 0 mm | - | 230 W/m² | - |
| 1777743759 | 16.67° C | 51% | 1025 hPa | 0 mm | - | 202 W/m² | - |
| 1777743460 | 16.67° C | 52% | 1025 hPa | 0 mm | - | 188 W/m² | - |
| 1777743161 | 16.67° C | 50% | 1025 hPa | 0 mm | - | 203 W/m² | - |
| 1777742860 | 16.67° C | 50% | 1025 hPa | 0 mm | - | 247 W/m² | - |
| 1777742559 | 16.67° C | 52% | 1025 hPa | 0 mm | - | 279 W/m² | - |
| 1777742260 | 16.11° C | 51% | 1025 hPa | 0 mm | - | 255 W/m² | - |
| 1777741961 | 16.11° C | 52% | 1025 hPa | 0 mm | - | 185 W/m² | - |
| 1777741659 | 16.11° C | 53% | 1025 hPa | 0 mm | - | 209 W/m² | - |
| 1777741360 | 16.11° C | 56% | 1025 hPa | 0 mm | - | 232 W/m² | - |
| 1777741059 | 15.56° C | 55% | 1025 hPa | 0 mm | - | 206 W/m² | - |
| 1777740760 | 15.56° C | 52% | 1025 hPa | 0 mm | - | 198 W/m² | - |
| 1777740460 | 15.56° C | 58% | 1026 hPa | 0 mm | - | 179 W/m² | - |
| 1777740160 | 15.56° C | 53% | 1026 hPa | 0 mm | - | 189 W/m² | - |
| 1777739859 | 15° C | 55% | 1026 hPa | 0 mm | - | 171 W/m² | - |
* Rain latest hour (hover to see other rain measurements)
** Current wind speed in m/s (hover to see current wind gust speed)